FW5704 Weather Reports


Display with metric or nautical units.
time (UTC)temp
F
wind
direction
speed
MPH
gust
MPH
rain 1hr
in
rain 24hr
in
rain mn
in
humidity
%
barometer
mb
20260506141035 60 292 0.0 2.0 0.01 0.05 0.05 93 1015.0
20260506140536 60 290 0.0 1.0 0.00 0.04 0.04 93 1015.3
20260506140046 60 0 0.0 1.0 0.00 0.04 0.04 93 1015.5
20260506135532 60 0 0.0 1.0 0.01 0.04 0.04 93 1015.2
20260506135032 60 0 0.0 1.0 0.01 0.04 0.04 93 1015.2
20260506134549 60 0 0.0 1.0 0.01 0.04 0.04 93 1014.8
20260506134035 60 0 0.0 1.0 0.01 0.04 0.04 93 1014.7
20260506133533 60 0 0.0 1.0 0.02 0.04 0.04 93 1014.7
20260506133052 60 0 0.0 2.0 0.02 0.04 0.04 93 1014.8
20260506132533 60 0 0.0 2.0 0.03 0.04 0.04 93 1015.0
20260506132037 60 0 0.0 0.0 0.04 0.04 0.04 93 1014.9
20260506131552 60 0 0.0 2.0 0.04 0.04 0.04 93 1014.6
20260506131034 60 0 0.0 2.0 0.04 0.04 0.04 92 1014.4
20260506130534 60 0 0.0 1.0 0.04 0.04 0.04 92 1014.7
20260506130057 60 0 0.0 1.0 0.04 0.04 0.04 92 1014.8
20260506125532 60 0 0.0 0.0 0.03 0.03 0.03 92 1015.2
20260506125034 60 0 0.0 0.0 0.03 0.03 0.03 92 1014.9
20260506124545 60 0 0.0 1.0 0.03 0.03 0.03 92 1014.8
20260506124032 60 0 0.0 1.0 0.03 0.03 0.03 92 1014.7
20260506123532 60 0 0.0 1.0 0.02 0.02 0.02 91 1014.8
20260506123045 60 0 0.0 1.0 0.02 0.02 0.02 91 1015.0
20260506122534 60 0 0.0 1.0 0.01 0.01 0.01 91 1014.6
20260506122033 60 0 0.0 1.0 0.00 0.00 0.00 90 1015.0
20260506121552 60 0 0.0 1.0 0.00 0.00 0.00 90 1014.8
20260506121033 60 0 0.0 1.0 0.00 0.00 0.00 90 1014.8
20260506120533 60 0 0.0 1.0 0.00 0.00 0.00 90 1014.7
20260506120053 60 0 0.0 1.0 0.00 0.00 0.00 89 1014.6
20260506115534 60 290 0.0 1.0 0.00 0.00 0.00 89 1014.6
20260506115034 60 0 0.0 1.0 0.00 0.00 0.00 89 1014.7
20260506114545 60 0 0.0 1.0 0.00 0.00 0.00 88 1014.4
20260506114032 60 0 0.0 1.0 0.00 0.00 0.00 88 1014.5
20260506113535 60 0 0.0 2.0 0.00 0.00 0.00 87 1014.5
20260506113044 60 0 0.0 2.0 0.00 0.00 0.00 86 1014.4
20260506112534 60 0 0.0 2.0 0.00 0.00 0.00 86 1014.3
20260506112033 60 0 0.0 2.0 0.00 0.00 0.00 85 1014.0
20260506111546 60 0 0.0 2.0 0.00 0.00 0.00 84 1014.4
20260506111033 60 292 0.0 2.0 0.00 0.00 0.00 84 1014.2
20260506110535 60 290 0.0 2.0 0.00 0.00 0.00 83 1014.4
20260506110051 60 0 0.0 1.0 0.00 0.00 0.00 83 1014.5
20260506105533 60 0 0.0 1.0 0.00 0.00 0.00 82 1014.5
20260506105033 60 0 0.0 1.0 0.00 0.00 0.00 81 1014.6
20260506104550 60 0 0.0 0.0 0.00 0.00 0.00 80 1014.6
20260506104034 60 0 0.0 1.0 0.00 0.00 0.00 79 1014.3
20260506103537 60 0 0.0 1.0 0.00 0.00 0.00 79 1014.4
20260506103052 60 0 0.0 1.0 0.00 0.00 0.00 79 1014.2
20260506102535 60 0 0.0 0.0 0.00 0.00 0.00 79 1014.0
20260506102034 60 0 0.0 0.0 0.00 0.00 0.00 78 1013.9
20260506101549 60 0 0.0 0.0 0.00 0.00 0.00 79 1013.7
20260506101033 60 0 0.0 2.0 0.00 0.00 0.00 79 1013.7
20260506100535 60 0 0.0 2.0 0.00 0.00 0.00 78 1013.7
20260506100049 60 290 0.0 1.0 0.00 0.00 0.00 79 1013.5
20260506095533 60 0 0.0 1.0 0.00 0.00 0.00 79 1013.5
20260506095033 60 0 0.0 2.0 0.00 0.00 0.00 79 1013.6
20260506094551 61 0 0.0 2.0 0.00 0.00 0.00 78 1013.5
20260506094034 61 0 0.0 0.0 0.00 0.00 0.00 78 1013.6
20260506093533 61 0 0.0 0.0 0.00 0.00 0.00 78 1013.7
20260506093049 61 0 0.0 0.0 0.00 0.00 0.00 77 1013.4
20260506092535 61 0 0.0 0.0 0.00 0.00 0.00 77 1013.4
20260506092035 62 0 0.0 0.0 0.00 0.00 0.00 77 1013.4
20260506091549 62 0 0.0 0.0 0.00 0.00 0.00 76 1013.4
20260506091035 62 0 0.0 0.0 0.00 0.00 0.00 75 1013.4
20260506090534 61 0 0.0 2.0 0.00 0.00 0.00 75 1013.3
20260506090056 61 0 0.0 2.0 0.00 0.00 0.00 75 1013.0
20260506085535 61 290 0.0 2.0 0.00 0.00 0.00 76 1013.1
20260506085034 61 0 0.0 2.0 0.00 0.00 0.00 75 1013.2
20260506084609 61 0 0.0 2.0 0.00 0.00 0.00 74 1013.4
20260506084035 60 0 0.0 0.0 0.00 0.00 0.00 75 1013.4
20260506083533 60 0 0.0 0.0 0.00 0.00 0.00 75 1013.6
20260506083047 60 0 0.0 0.0 0.00 0.00 0.00 76 1013.5
20260506082533 60 0 0.0 0.0 0.00 0.00 0.00 76 1013.7
20260506082034 61 0 0.0 0.0 0.00 0.00 0.00 77 1013.8
20260506081546 61 0 0.0 0.0 0.00 0.00 0.00 75 1013.8
20260506081035 61 0 0.0 0.0 0.00 0.00 0.00 76 1013.5
20260506080535 61 0 0.0 0.0 0.00 0.00 0.00 76 1013.6
20260506073052 61 0 0.0 0.0 0.00 0.00 0.00 73 1013.8
20260506072534 61 0 0.0 1.0 0.00 0.00 0.00 74 1013.9
20260506072034 61 0 0.0 1.0 0.00 0.00 0.00 73 1013.8
20260506071548 61 0 0.0 1.0 0.00 0.00 0.00 74 1013.8
20260506071039 61 0 0.0 0.0 0.00 0.00 0.00 76 1014.0
20260506070535 61 0 0.0 0.0 0.00 0.00 0.00 75 1014.1
20260506062033 62 0 0.0 0.0 0.00 0.00 0.00 75 1014.4
20260506061555 62 0 0.0 0.0 0.00 0.00 0.00 74 1014.5
20260506061035 62 0 0.0 1.0 0.00 0.00 0.00 73 1014.6
20260506060533 62 0 0.0 1.0 0.00 0.00 0.00 70 1014.5
20260506051032 63 0 0.0 2.0 0.00 0.00 0.00 70 1014.7
20260506050534 63 0 0.0 1.0 0.00 0.00 0.00 67 1014.7
20260506050108 63 287 0.0 2.0 0.00 0.00 0.00 67 1014.8
20260506045033 63 287 0.0 2.0 0.00 0.00 0.00 68 1014.6
20260506044552 63 0 0.0 2.0 0.00 0.00 0.00 71 1014.6
20260506044033 63 287 0.0 2.0 0.00 0.00 0.00 70 1014.6
20260506043533 63 0 0.0 2.0 0.00 0.00 0.00 69 1014.7
20260506043049 63 287 0.0 2.0 0.00 0.00 0.00 70 1014.6
20260506042533 63 0 0.0 1.0 0.00 0.00 0.00 69 1014.7
20260506042033 64 287 0.0 2.0 0.00 0.00 0.00 67 1015.0
20260506041552 64 0 0.0 2.0 0.00 0.00 0.00 67 1015.0
20260506041032 64 0 0.0 2.0 0.00 0.00 0.00 63 1015.1
20260506040532 64 0 0.0 2.0 0.00 0.00 0.00 63 1015.1
20260506040101 63 289 0.0 2.0 0.00 0.00 0.00 64 1015.0
20260506035532 63 288 0.0 2.0 0.00 0.00 0.00 64 1014.9
20260506035035 63 0 0.0 2.0 0.00 0.00 0.00 64 1014.8
20260506034551 63 291 0.0 2.0 0.00 0.00 0.00 65 1015.0
20260506034033 62 0 0.0 3.0 0.00 0.00 0.00 68 1015.1
20260506033533 62 0 0.0 3.0 0.00 0.00 0.00 68 1015.1
20260506033051 62 292 0.0 2.0 0.00 0.00 0.00 68 1015.1
20260506032535 62 279 0.0 2.0 0.00 0.00 0.00 69 1015.2
20260506032033 61 0 0.0 2.0 0.00 0.00 0.00 68 1015.0
20260506031552 62 0 0.0 3.0 0.00 0.00 0.00 69 1015.0
20260506031032 62 264 0.0 3.0 0.00 0.00 0.00 68 1015.1
20260506030532 61 0 0.0 0.0 0.00 0.00 0.00 68 1014.9
20260506030054 61 0 0.0 0.0 0.00 0.00 0.00 68 1014.7
20260506025532 61 0 0.0 0.0 0.00 0.00 0.00 68 1014.9
20260506025032 61 0 0.0 0.0 0.00 0.00 0.00 68 1014.9
20260506024554 61 0 0.0 0.0 0.00 0.00 0.00 68 1015.2
20260506024034 61 0 0.0 0.0 0.00 0.00 0.00 67 1015.2
20260506023541 61 0 0.0 0.0 0.00 0.00 0.00 67 1015.2
20260506023046 61 0 0.0 0.0 0.00 0.00 0.00 66 1015.1
20260506022535 61 0 0.0 0.0 0.00 0.00 0.00 66 1014.9
20260506022035 61 0 0.0 0.0 0.00 0.00 0.00 66 1015.0
20260506021600 61 0 0.0 0.0 0.00 0.00 0.00 65 1014.8
20260506021035 61 0 0.0 0.0 0.00 0.00 0.00 65 1014.8
20260506020533 61 0 0.0 0.0 0.00 0.00 0.00 65 1014.7
20260506020046 61 0 0.0 0.0 0.00 0.00 0.00 64 1014.6
20260506015535 61 0 0.0 1.0 0.00 0.00 0.00 65 1014.6
20260506015035 62 0 0.0 2.0 0.00 0.00 0.00 63 1014.4
20260506014550 62 0 0.0 2.0 0.00 0.00 0.00 63 1014.4
20260506014034 62 0 0.0 2.0 0.00 0.00 0.00 63 1014.5
20260506013532 63 0 0.0 2.0 0.00 0.00 0.00 61 1014.5
20260506013056 63 0 0.0 2.0 0.00 0.00 0.00 60 1014.5
20260506012533 63 0 0.0 2.0 0.00 0.00 0.00 61 1014.4
20260506012036 63 271 0.0 2.0 0.00 0.00 0.00 60 1014.3
20260506011602 63 0 0.0 1.0 0.00 0.00 0.00 59 1014.3
20260506011035 63 0 0.0 1.0 0.00 0.00 0.00 60 1014.5
20260506010532 64 269 0.0 1.0 0.00 0.00 0.00 59 1014.4
20260506010048 64 0 0.0 2.0 0.00 0.00 0.00 59 1014.5
20260506005534 64 0 0.0 2.0 0.00 0.00 0.00 57 1014.6
20260506005034 65 0 1.0 2.0 0.00 0.00 0.00 55 1014.6
20260506004550 65 0 0.0 1.0 0.00 0.00 0.00 54 1014.7
20260506004033 65 0 0.0 3.0 0.00 0.00 0.00 56 1014.8
20260506003532 66 0 0.0 3.0 0.00 0.00 0.00 53 1014.7
20260506003045 66 268 0.0 11.0 0.00 0.00 0.00 52 1014.8
20260506002535 66 290 0.0 11.0 0.00 0.00 0.00 51 1014.6
20260506002034 67 271 1.0 8.0 0.00 0.00 0.00 52 1014.6
20260506001549 67 256 1.0 3.0 0.00 0.00 0.00 51 1014.7
20260506001034 67 247 1.0 3.0 0.00 0.00 0.00 48 1014.4
20260506000535 68 240 0.0 2.0 0.00 0.00 0.00 48 1014.5
20260506000054 68 0 0.0 7.0 0.00 0.00 0.00 47 1014.4
20260505235534 68 255 0.0 8.0 0.00 0.00 0.00 46 1014.5
20260505235034 68 252 2.0 8.0 0.00 0.00 0.00 46 1014.2
20260505234600 68 248 1.0 7.0 0.00 0.00 0.00 46 1014.3
20260505234034 69 0 1.0 7.0 0.00 0.00 0.00 45 1014.4
20260505233534 69 209 1.0 4.0 0.00 0.00 0.00 45 1014.4
20260505233045 69 267 0.0 6.0 0.00 0.00 0.00 45 1014.4
20260505232533 69 0 0.0 6.0 0.00 0.00 0.00 45 1014.2
20260505232041 69 254 1.0 7.0 0.00 0.00 0.00 44 1014.4
20260505231601 69 277 2.0 9.0 0.00 0.00 0.00 45 1014.2
20260505231034 70 256 4.0 9.0 0.00 0.00 0.00 44 1014.1
20260505230534 70 265 1.0 9.0 0.00 0.00 0.00 45 1014.3
20260505230043 70 263 2.0 11.0 0.00 0.00 0.00 43 1014.3
20260505225538 71 267 5.0 11.0 0.00 0.00 0.00 42 1014.3
20260505225034 71 0 2.0 9.0 0.00 0.00 0.00 44 1014.4
20260505224552 71 259 4.0 9.0 0.00 0.00 0.00 43 1014.5
20260505224038 71 252 3.0 9.0 0.00 0.00 0.00 43 1014.4
20260505223535 71 258 3.0 11.0 0.00 0.00 0.00 42 1014.4
20260505223050 72 243 3.0 13.0 0.00 0.00 0.00 41 1014.4
20260505222534 72 249 5.0 13.0 0.00 0.00 0.00 41 1014.6
20260505222034 72 263 1.0 9.0 0.00 0.00 0.00 43 1014.2
20260505221550 72 329 1.0 9.0 0.00 0.00 0.00 42 1014.3
20260505221034 72 261 1.0 8.0 0.00 0.00 0.00 43 1014.2
20260505220533 73 0 2.0 11.0 0.00 0.00 0.00 41 1014.3
20260505220052 73 301 2.0 11.0 0.00 0.00 0.00 40 1014.2
20260505215534 73 229 1.0 11.0 0.00 0.00 0.00 40 1014.3
20260505215035 73 300 5.0 11.0 0.00 0.00 0.00 39 1014.2
20260505214610 73 236 3.0 12.0 0.00 0.00 0.00 41 1014.1
20260505214034 73 263 4.0 12.0 0.00 0.00 0.00 38 1014.1
20260505213536 73 252 2.0 6.0 0.00 0.00 0.00 40 1014.2
20260505213046 73 0 1.0 9.0 0.00 0.00 0.00 39 1014.2
20260505212534 73 243 1.0 9.0 0.00 0.00 0.00 40 1014.2
20260505212034 72 273 3.0 13.0 0.00 0.00 0.00 39 1014.2
20260505211546 73 284 6.0 13.0 0.00 0.00 0.00 38 1014.1
20260505211034 73 256 3.0 7.0 0.00 0.00 0.00 40 1014.2
20260505210533 73 0 3.0 13.0 0.00 0.00 0.00 43 1014.1
20260505210045 74 271 3.0 13.0 0.00 0.00 0.00 41 1014.2
20260505205534 74 261 3.0 13.0 0.00 0.00 0.00 40 1014.1
20260505205035 74 134 2.0 8.0 0.00 0.00 0.00 41 1014.2
20260505204553 74 30 1.0 8.0 0.00 0.00 0.00 40 1014.1
20260505204033 74 257 2.0 12.0 0.00 0.00 0.00 41 1014.1
20260505203534 73 298 4.0 12.0 0.00 0.00 0.00 41 1014.2
20260505203048 73 281 1.0 11.0 0.00 0.00 0.00 47 1014.3
20260505202533 73 360 1.0 11.0 0.00 0.00 0.00 43 1014.4
20260505202033 73 254 3.0 10.0 0.00 0.00 0.00 42 1014.4
20260505201549 74 100 3.0 11.0 0.00 0.00 0.00 41 1014.3
20260505201034 74 81 3.0 11.0 0.00 0.00 0.00 42 1014.2
20260505200534 74 267 3.0 11.0 0.00 0.00 0.00 40 1014.4
20260505200057 74 272 1.0 10.0 0.00 0.00 0.00 40 1014.5
20260505195537 74 257 3.0 16.0 0.00 0.00 0.00 42 1014.4
20260505195036 73 269 5.0 16.0 0.00 0.00 0.00 41 1014.4
20260505194545 74 280 3.0 11.0 0.00 0.00 0.00 40 1014.4
20260505194034 74 245 2.0 12.0 0.00 0.00 0.00 40 1014.6
20260505193534 72 277 6.0 12.0 0.00 0.00 0.00 40 1014.6
20260505193048 72 270 4.0 10.0 0.00 0.00 0.00 38 1014.9
20260505192533 72 257 6.0 12.0 0.00 0.00 0.00 35 1015.0
20260505192034 73 256 4.0 12.0 0.00 0.00 0.00 36 1014.9
20260505191548 72 261 2.0 12.0 0.00 0.00 0.00 37 1015.0
20260505191034 72 232 2.0 10.0 0.00 0.00 0.00 35 1015.2
20260505190535 73 296 1.0 10.0 0.00 0.00 0.00 38 1015.3
20260505190048 74 254 1.0 6.0 0.00 0.00 0.00 40 1015.3
20260505185534 74 19 1.0 8.0 0.00 0.00 0.00 40 1015.3
20260505185035 73 40 4.0 14.0 0.00 0.00 0.00 39 1015.3
20260505184545 73 257 2.0 14.0 0.00 0.00 0.00 41 1015.5
20260505184035 73 267 7.0 14.0 0.00 0.00 0.00 39 1015.5
20260505183534 74 262 3.0 10.0 0.00 0.00 0.00 39 1015.5
20260505183055 73 57 1.0 11.0 0.00 0.00 0.00 43 1015.7
20260505182534 73 240 4.0 11.0 0.00 0.00 0.00 41 1015.6
20260505182035 72 257 2.0 11.0 0.00 0.00 0.00 41 1015.8
20260505181554 71 288 4.0 11.0 0.00 0.00 0.00 42 1015.8
20260505181032 71 254 5.0 14.0 0.00 0.00 0.00 41 1015.7
20260505180533 71 254 5.0 14.0 0.00 0.00 0.00 40 1015.9
20260505180048 72 0 1.0 11.0 0.00 0.00 0.00 41 1016.0
20260505175534 72 277 3.0 11.0 0.00 0.00 0.00 40 1015.9
20260505175035 71 265 2.0 11.0 0.00 0.00 0.00 41 1015.9
20260505174557 71 258 4.0 13.0 0.00 0.00 0.00 41 1015.9
20260505174034 71 236 4.0 13.0 0.00 0.00 0.00 41 1016.0
20260505173534 72 270 2.0 9.0 0.00 0.00 0.00 40 1016.1
20260505173045 72 63 3.0 10.0 0.00 0.00 0.00 38 1016.0
20260505172535 71 265 3.0 10.0 0.00 0.00 0.00 43 1016.1
20260505172033 72 252 0.0 9.0 0.00 0.00 0.00 40 1016.2
20260505171549 72 161 2.0 6.0 0.00 0.00 0.00 41 1016.2
20260505171033 72 107 1.0 6.0 0.00 0.00 0.00 46 1016.3
20260505170533 72 283 1.0 11.0 0.00 0.00 0.00 43 1016.3
20260505170053 71 305 2.0 12.0 0.00 0.00 0.00 44 1016.4
20260505165533 72 257 2.0 12.0 0.00 0.00 0.00 44 1016.4
20260505165057 71 319 1.0 9.0 0.00 0.00 0.00 50 1016.6
20260505164546 71 207 1.0 9.0 0.00 0.00 0.00 47 1016.5
20260505164036 70 273 3.0 9.0 0.00 0.00 0.00 46 1016.6
20260505163534 70 254 1.0 8.0 0.00 0.00 0.00 46 1016.4
20260505163053 71 263 2.0 8.0 0.00 0.00 0.00 50 1016.4
20260505162535 71 352 1.0 6.0 0.00 0.00 0.00 49 1016.4
20260505162033 71 278 2.0 6.0 0.00 0.00 0.00 47 1016.4
20260505161543 71 311 1.0 6.0 0.00 0.00 0.00 48 1016.3
20260505161033 71 0 1.0 6.0 0.00 0.00 0.00 51 1016.3
20260505160533 70 0 1.0 4.0 0.00 0.00 0.00 50 1016.4
20260505153058 67 233 2.0 11.0 0.00 0.00 0.00 50 1016.9
20260505152536 67 221 2.0 7.0 0.00 0.00 0.00 51 1016.8
20260505152033 68 264 0.0 7.0 0.00 0.00 0.00 52 1016.8
20260505151544 68 249 1.0 7.0 0.00 0.00 0.00 49 1016.8
20260505151033 67 0 1.0 5.0 0.00 0.00 0.00 52 1016.7
20260505150533 66 261 1.0 7.0 0.00 0.00 0.00 53 1016.7